Content
SEND FEEDBACK

Daily
Averages
Monthly
Summary
United Kingdom

BALLYKELLY, NORTHERN IRELAND


Home > Europe > United Kingdom > Northern Ireland
Elevation: 13 feet     Latitude: 55 03N     Longitude: 007 00W

WEATHER
 
SELECT A DAY
Number of Records: 132,433;   Date Range: 7/1/96 - 10/29/14
 
SHARE

PRINT THIS DATA

[ ← Previous Day ]
WEATHER ALMANAC - FEBRUARY 20, 2013
[ Next Day → ]
[ °C ]   °F
Weather ElementAverageHighLow
Temperature43.5 °F46.4 °F (1:50 pm)39.2 °F (8:20 am)
Dewpoint37.6 °F39.2 °F (10:20 am)35.6 °F (8:20 am)
Humidity79.7 %87 % (8:20 am)71 % (2:50 pm)
Barometer30.10 in30.12 in (11:20 am)30.06 in (8:20 am)
Wind Speed13.9 mph20.7 mph (2:20 pm)
Weather ElementAverage
Visibility5.1 mi
Wind DirectionSE (129.6 °)

Weather ElementTotal
Precipitation---
Heating Degree Days22.2 (Base 65)
Averaged from 23 records on February 20, 2013
WEATHER CONDITIONS BREAKOUT
WIND DIRECTION BREAKOUT
WEATHER BY HOUR - FEBRUARY 20, 2013
[ °C ]   °F
Local TimeTemperatureDewpointHumidityBarometerVisibilityWind DirectionWind SpeedGust SpeedPrecipitationEventsConditions
8:20 AM39.2 °F35.6 °F87 %30.06 in4.3 miSE (130°)13.8 mphPartly Cloudy
8:50 AM39.2 °F35.6 °F87 %30.09 in3.7 miESE (110°)9.2 mphScattered Clouds
9:20 AM41.0 °F37.4 °F87 %30.09 in4.3 miSE (140°)8.1 mphMostly Cloudy
9:50 AM41.0 °F37.4 °F87 %30.09 in3.1 miESE (120°)9.2 mphMostly Cloudy
10:20 AM42.8 °F39.2 °F87 %30.09 in3.1 miSE (130°)9.2 mphScattered Clouds
10:50 AM44.6 °F39.2 °F81 %30.09 in3.1 miSSE (150°)12.7 mphScattered Clouds
11:20 AM44.6 °F39.2 °F81 %30.12 in4.3 miSE (140°)12.7 mphScattered Clouds
11:50 AM42.8 °F37.4 °F81 %30.09 in4.3 miSE (130°)15.0 mphScattered Clouds
12:20 PM44.6 °F39.2 °F81 %30.09 in4.3 miSE (130°)17.3 mphScattered Clouds
12:50 PM44.6 °F39.2 °F81 %30.09 in5.6 miESE (120°)15.0 mphPartly Cloudy
1:20 PM44.6 °F39.2 °F81 %30.09 in5.0 miESE (120°)15.0 mphPartly Cloudy
1:50 PM46.4 °F39.2 °F76 %30.09 in5.0 miSE (140°)19.6 mphPartly Cloudy
2:20 PM46.4 °F39.2 °F76 %30.09 in5.0 miSE (130°)20.7 mphPartly Cloudy
2:50 PM46.4 °F37.4 °F71 %30.09 in6.2 miSE (130°)19.6 mphPartly Cloudy
3:20 PM46.4 °F37.4 °F71 %30.09 in6.2 miSE (130°)19.6 mphPartly Cloudy
3:50 PM46.4 °F37.4 °F71 %30.09 in6.2 miSE (130°)16.1 mphPartly Cloudy
4:20 PM46.4 °F37.4 °F71 %30.09 in6.2 miSE (130°)13.8 mphPartly Cloudy
4:50 PM44.6 °F37.4 °F76 %30.09 in6.2 miSE (130°)11.5 mphPartly Cloudy
5:20 PM42.8 °F37.4 °F81 %30.09 in6.2 miSE (140°)11.5 mphPartly Cloudy
5:50 PM42.8 °F35.6 °F76 %30.12 in6.2 miSE (130°)10.4 mphPartly Cloudy
6:20 PM41.0 °F35.6 °F81 %30.12 in6.2 miESE (120°)13.8 mphPartly Cloudy
6:50 PM41.0 °F35.6 °F81 %30.12 in6.2 miESE (120°)15.0 mphPartly Cloudy
7:20 PM41.0 °F35.6 °F81 %30.12 in6.2 miSE (130°)10.4 mphPartly Cloudy
Hourly data recorded from EGAE, located miles away from Ballykelly, Northern Ireland







STORIES FROM OUR PARTNERS